Weather in Zhimbira

Russia / Zabaykalsky Krai     51°31′02″N   114°00′50″E
temp.,
°C
wind,
m/s
gust,
m/s
humid.,
%
clouds,
%
prec.,
mm/h
press.,
hPa
HPBL,
m
22 january, sat
sat2200:00−24wsw11100100 0.0 10389
03:00−26wsw11100100 0.1 10399
06:00−27w11100100 0.0 10409
09:00−28wsw11100100 0.1 10419
12:00−21nw119773 0.0 1039102
15:00−16nw118734 0.0 1036181
18:00−22ssw111005 0.0 10389
21:00−25sw1110028 0.0 10409
23 january, sun
sun2300:00−27sw1110067 0.0 10429
03:00−28w0010092 0.0 10429
06:00−25ne00100100 0.0 104018
09:00−24ne11100100 0.0 104014
12:00−19ne1193100 0.0 1037124
15:00−15ne2287100 0.0 1034254
18:00−16ne1196100 0.0 103415
21:00−16e1198100 0.4 103430
24 january, mon
mon2400:00−17e1198100 0.4 103419
03:00−17ene1198100 0.8 103315
06:00−19nne0099100 0.2 103210
09:00−19wnw0099100 0.4 103212
12:00−16wnw1191100 0.2 1031215
15:00−14nw2387100 0.4 1029456
18:00−15w1197100 0.1 10299
21:00−17w1198100 0.3 103011
25 january, tue
tue2500:00−18w1199100 0.1 103011
03:00−18w1199100 0.2 103014
06:00−18w119897 0.1 102922
09:00−18w1198100 0.1 103023
12:00−14wnw378572 0.0 1029378
15:00−12wnw577880 0.0 1027663
18:00−15wnw368669 0.0 102989
21:00−20wsw329564 0.0 103228
26 january, wed
wed2600:00−23wsw229797 0.0 103416
03:00−23wsw229798 0.0 103514
06:00−25wsw229872 0.0 10369
09:00−28w1110097 0.0 103910
12:00−20wnw129283 0.0 1037142
15:00−15nw357846 0.0 1034456
18:00−21w229414 0.0 10379
21:00−26wsw211005 0.0 10409